Theta_e
340 338 337 337 335 330 330 331 333 334 335 336 337 338 341 342 342 345 345 344 345 344 346 345 348 348 346 348 348 348 350 348 351 349 350 349 350 350 350 352 352 352 352 352 353 353 355 357 357 358 358 358 357 356 355 356 355 358 356 357 355 356 353
338 338 338 338 337 338 339 338 336 334 335 336 337 338 340 342 342 343 345 345 345 345 346 346 349 348 347 347 349 348 348 349 351 353 351 351 354 352 352 353 353 352 353 353 353 354 355 356 356 355 356 358 358 356 356 356 356 355 356 357 356 353 352
337 338 338 338 338 338 342 341 341 336 335 336 338 338 340 342 343 343 344 345 344 345 347 346 349 348 348 348 348 349 349 350 350 351 350 350 352 353 354 354 353 353 355 355 354 355 357 355 355 355 355 355 357 357 356 356 357 357 357 356 357 355 352
337 338 338 340 340 343 343 343 343 343 335 337 337 339 340 342 344 344 345 346 345 346 346 346 348 349 349 348 348 348 349 349 350 351 351 351 352 354 354 353 354 354 355 355 357 357 357 356 355 354 361 355 356 358 358 358 358 358 358 357 356 357 354
338 339 339 340 340 340 342 344 343 341 342 337 337 340 341 343 344 344 345 347 346 346 348 347 348 350 350 350 350 350 350 349 350 351 351 352 352 353 353 354 354 354 355 356 356 358 355 356 356 355 355 355 355 357 359 358 358 359 358 357 355 355 355
336 337 339 341 341 342 343 344 343 343 343 343 340 338 341 343 345 344 345 347 346 347 349 348 347 350 350 351 351 351 350 350 350 351 352 351 351 352 353 353 355 355 355 355 357 357 357 355 356 356 355 356 356 357 358 358 358 359 358 357 356 355 356
334 336 337 340 341 342 345 344 345 346 347 347 346 346 343 344 344 345 345 347 347 345 347 349 348 349 350 351 351 352 350 350 350 351 352 352 352 351 352 353 355 355 356 356 356 357 357 356 356 356 356 355 356 356 357 357 357 357 357 356 355 355 354
335 334 337 339 341 344 344 344 346 347 347 346 344 344 343 344 345 346 345 347 348 347 348 350 350 349 350 351 352 351 351 351 351 352 352 352 351 352 351 351 352 353 353 354 355 356 356 356 357 357 356 355 355 356 357 357 356 357 357 357 355 355 357
333 334 335 338 341 343 344 345 346 348 347 346 346 345 346 347 347 347 347 348 349 348 348 351 351 351 351 352 351 351 352 352 351 352 352 352 351 351 351 350 350 352 351 351 352 355 356 356 356 357 357 356 355 355 356 357 357 357 357 357 356 356 356
331 333 334 335 337 339 342 344 344 344 344 345 346 346 346 346 347 348 348 349 349 349 348 350 351 352 351 351 351 351 350 351 351 352 352 351 351 351 351 350 349 351 351 351 351 351 353 356 356 356 356 356 355 354 355 356 357 357 357 357 357 357 356
328 331 333 333 334 336 338 338 338 339 341 343 344 345 344 344 345 346 347 348 349 348 350 350 351 350 349 351 349 349 348 350 351 351 351 351 352 351 351 351 350 349 350 349 349 350 350 353 355 354 354 355 355 354 354 355 356 356 357 357 357 358 357
326 327 328 331 333 335 335 336 337 338 339 341 343 344 345 346 347 347 346 346 347 348 350 350 351 348 348 348 348 346 346 346 347 349 350 351 351 352 351 351 350 348 349 349 348 349 349 350 352 354 353 354 355 354 354 354 355 355 356 357 357 357 357
325 325 326 327 328 331 333 334 335 337 338 339 341 342 344 346 346 348 347 346 347 349 348 348 349 348 347 348 347 345 344 345 348 346 346 348 348 348 348 349 350 350 348 349 348 347 348 349 350 353 353 353 354 354 354 353 353 353 354 355 356 356 356
325 324 326 327 327 327 328 330 333 336 337 338 339 340 342 344 346 346 345 346 346 347 348 348 348 348 349 348 347 345 345 345 347 346 346 346 345 345 346 346 345 344 346 348 348 347 347 347 349 350 352 353 353 354 354 353 352 351 352 353 354 355 355
320 321 323 324 325 325 325 326 327 329 334 338 339 339 341 342 343 344 345 345 346 347 347 350 348 347 347 347 345 345 345 346 347 347 348 350 348 346 345 346 346 345 346 346 346 348 347 347 347 348 349 351 352 353 353 353 352 352 352 351 351 352 353
319 320 320 323 324 325 325 326 327 328 330 333 337 339 340 340 340 341 341 342 343 343 346 348 346 346 346 346 345 347 348 347 349 349 349 348 347 346 346 346 346 346 346 347 348 346 346 345 345 346 347 348 349 351 352 352 353 355 348 350 353 351 352
318 318 319 320 323 324 324 326 327 328 329 331 334 336 336 337 337 339 340 340 341 341 343 343 342 342 343 343 346 349 351 349 350 349 348 348 347 347 347 346 347 347 347 346 346 345 345 347 343 343 344 346 347 348 349 351 353 346 337 337 342 353 350
317 317 318 319 320 322 323 324 326 326 328 328 331 333 334 334 335 336 336 338 339 341 342 341 340 339 340 342 343 344 344 346 348 349 348 347 347 347 347 348 348 348 348 347 346 345 347 345 344 343 342 343 345 347 349 350 349 336 334 335 335 344 352
316 315 315 317 318 319 318 320 322 325 326 327 329 330 333 334 333 332 334 334 336 338 338 338 338 338 338 339 340 342 343 344 345 345 346 348 350 350 351 349 348 346 346 347 348 349 344 343 343 342 342 342 341 343 346 349 342 334 332 332 332 332 344
313 313 313 314 316 316 317 319 321 324 326 326 327 329 332 332 333 331 331 332 332 332 333 333 334 335 335 337 338 339 341 343 343 343 343 344 345 347 348 349 348 349 349 350 350 347 346 347 344 343 342 343 342 341 342 344 344 332 329 328 328 330 333
311 313 313 314 315 317 318 319 320 321 323 324 326 326 326 326 329 330 330 330 329 330 330 330 331 332 332 333 335 337 338 340 341 341 342 343 343 344 344 345 345 347 349 350 350 349 348 348 346 345 347 346 346 345 344 344 338 330 327 325 325 327 331
311 312 312 313 314 314 315 316 317 318 319 323 321 322 322 323 326 327 328 330 329 329 330 330 330 330 332 331 333 333 335 337 338 339 340 341 342 343 343 343 344 344 347 348 348 349 350 350 350 348 347 347 347 346 345 347 333 328 325 322 322 325 336
311 312 313 314 315 315 316 317 317 318 319 319 320 321 321 322 323 324 324 324 324 324 325 327 328 329 330 330 330 332 332 334 335 337 337 338 339 341 342 342 343 344 347 347 347 347 346 346 349 350 349 349 349 347 345 347 339 326 323 319 319 323 335
313 314 314 314 314 315 315 315 316 318 317 317 318 319 321 323 322 321 321 321 321 321 321 322 322 325 327 326 331 330 331 332 332 333 335 335 335 339 342 342 342 343 347 346 346 346 347 347 347 348 350 349 349 349 348 348 343 325 322 320 316 326 335
313 313 313 314 314 314 315 315 317 317 317 316 316 317 320 321 322 319 318 319 319 319 319 320 322 322 323 323 326 330 330 330 331 330 330 331 332 338 341 338 339 342 343 344 346 347 347 349 348 349 349 351 351 354 352 350 347 329 320 320 320 324 333
311 312 312 313 313 314 315 317 316 314 314 314 315 317 319 319 319 321 318 316 316 317 318 319 320 322 322 323 325 328 330 329 330 330 329 328 330 336 339 339 337 337 339 342 344 346 347 347 347 346 347 349 350 352 351 350 350 347 328 319 317 318 335
312 312 312 313 315 319 312 312 313 313 313 313 315 316 318 318 317 316 317 315 314 315 317 318 320 322 322 323 323 324 325 327 327 328 327 328 330 335 336 334 334 337 340 341 342 343 342 341 341 341 342 344 345 346 348 349 349 348 328 323 319 316 321
312 313 314 318 318 315 311 312 311 312 312 313 315 316 316 317 317 315 313 312 313 314 316 317 318 319 320 322 322 323 323 324 326 328 328 330 332 329 329 330 333 336 338 338 337 336 336 336 337 337 337 340 342 343 343 345 346 346 336 327 321 319 312
310 310 310 310 312 315 313 310 310 310 311 312 313 314 314 316 315 313 312 310 312 314 315 316 316 318 319 322 322 323 322 323 323 324 326 328 330 328 328 330 332 333 336 333 333 333 333 333 333 333 333 335 337 339 340 341 343 339 342 331 320 316 315
308 309 309 311 312 312 315 310 310 310 311 312 312 312 312 313 313 314 312 310 313 314 316 315 316 317 319 321 319 320 321 322 324 322 323 326 327 328 327 328 331 331 332 329 329 328 328 329 331 330 329 329 331 334 336 338 339 341 339 337 317 313 313
308 308 309 310 311 314 311 309 308 309 310 310 311 311 311 311 312 313 310 310 315 314 314 315 317 318 318 316 316 318 318 319 319 321 323 324 325 325 328 326 326 325 326 327 325 325 326 327 330 328 328 328 328 329 331 333 335 337 339 338 330 319 314
307 308 309 310 310 310 309 309 309 309 309 308 309 310 312 310 310 310 309 312 314 314 314 316 317 318 317 316 316 315 317 317 318 321 323 323 324 327 327 325 325 326 324 322 322 323 325 327 329 328 327 326 325 327 328 329 330 331 334 340 335 328 320
306 307 307 307 309 310 308 309 309 309 309 307 307 308 310 308 310 310 310 312 313 313 313 315 316 317 315 314 314 315 316 316 319 321 321 320 320 321 324 324 323 323 324 322 319 321 324 326 328 326 326 325 324 325 326 325 326 327 330 331 327 326 328
305 306 307 308 308 308 307 307 307 308 308 308 305 308 309 308 308 308 309 311 312 311 312 314 315 314 312 313 314 316 317 317 324 323 317 317 318 318 318 319 323 321 320 319 319 320 321 322 323 323 323 321 322 321 321 321 322 325 324 322 321 321 322
306 306 306 306 307 309 307 308 308 308 308 306 306 307 307 307 307 308 308 309 309 308 310 312 313 314 312 313 314 314 319 319 318 317 317 315 316 316 316 317 321 320 318 317 319 323 321 319 319 322 318 319 318 318 318 320 320 323 309 313 306 309 313
305 305 304 305 308 308 309 310 308 307 308 305 306 307 307 306 306 307 309 308 308 308 309 310 311 311 310 312 313 314 318 319 318 317 318 316 315 315 317 325 319 314 318 318 324 316 312 314 318 319 316 313 315 318 318 318 322 308 299 297 296 297 297
304 304 304 305 306 305 307 307 309 309 308 306 308 308 308 306 305 305 307 307 307 307 307 306 309 310 309 313 312 317 321 319 317 317 315 315 315 315 316 318 319 310 309 313 315 310 303 300 301 303 308 316 314 317 315 313 305 298 297 296 296 295 295
305 304 305 306 306 307 307 306 307 306 307 306 307 305 305 306 305 304 306 306 307 307 306 306 307 307 307 309 313 318 318 317 316 318 316 315 315 316 316 315 314 316 309 306 307 305 301 301 301 301 301 302 307 313 314 310 303 297 296 296 296 296 295
Wind_Speed
4 3 2 2 2 8 10 9 10 12 13 12 12 13 12 11 10 10 10 10 11 10 8 7 7 6 6 6 5 4 5 5 5 5 5 5 5 6 6 5 5 5 5 5 5 5 4 4 4 5 4 4 4 3 3 3 3 3 2 3 3 3 3
4 3 2 2 3 4 7 8 7 6 9 12 12 13 11 11 10 10 11 11 11 12 10 9 8 7 7 6 5 4 5 5 5 3 4 4 4 4 5 6 6 6 5 5 4 4 3 4 4 4 4 4 4 4 4 3 3 3 3 3 3 3 3
5 4 2 3 4 2 5 6 5 7 8 9 11 11 12 12 12 13 11 11 11 10 9 10 9 9 7 6 5 5 5 4 4 5 5 5 5 6 5 5 6 6 6 5 4 5 4 4 4 4 5 5 4 4 4 4 4 4 4 3 3 3 3
6 5 4 2 3 2 3 5 5 3 6 8 10 13 13 13 12 12 12 13 13 11 11 10 9 9 7 7 6 5 5 4 4 5 4 5 5 5 5 4 5 3 4 5 5 5 4 4 4 4 5 4 4 4 4 4 4 4 4 4 3 4 4
5 4 3 3 3 2 2 6 6 5 4 6 8 10 12 12 12 10 9 11 12 13 13 13 10 9 7 7 6 5 6 5 4 3 4 4 4 4 5 6 5 5 5 4 4 5 4 4 4 4 4 4 4 4 4 4 4 4 4 4 4 3 4
6 5 3 6 4 2 1 4 6 6 5 5 6 7 8 9 8 10 9 9 9 8 6 7 8 8 9 8 7 5 4 4 4 4 4 4 5 5 5 5 5 5 4 6 4 5 5 4 4 5 4 4 4 4 4 4 4 4 4 4 4 4 4
4 4 6 6 5 4 4 3 3 5 4 4 3 3 6 8 10 9 7 7 7 8 8 8 8 7 7 6 7 6 6 6 4 5 3 3 4 6 6 5 5 5 6 4 5 4 4 5 5 5 5 4 4 4 4 4 4 4 4 4 4 3 3
8 5 5 7 5 4 5 3 3 4 4 3 4 4 7 7 6 6 9 9 9 8 8 9 9 9 7 7 7 8 7 6 5 4 3 4 4 5 5 5 5 5 4 5 5 5 5 6 5 5 5 5 5 5 5 4 4 4 4 4 4 4 3
7 6 4 5 6 6 6 4 3 5 6 5 5 4 3 6 8 8 8 7 6 7 5 5 5 6 7 7 7 8 6 5 5 5 5 6 5 5 5 5 5 4 5 5 5 4 6 6 6 5 5 5 5 5 5 5 5 4 4 5 5 5 4
8 7 6 6 7 6 6 6 5 6 7 6 6 6 5 3 3 4 4 5 6 7 6 5 4 2 2 3 4 4 4 5 5 6 6 7 6 7 6 5 5 5 5 6 5 5 5 5 6 5 6 6 6 6 6 5 5 5 5 6 6 6 6
7 8 8 10 8 6 8 8 7 6 6 6 6 6 5 4 4 4 4 5 7 6 6 6 6 7 6 4 2 1 1 2 3 5 7 8 6 7 6 6 6 5 6 6 6 5 5 5 4 6 6 7 7 7 7 7 6 6 6 5 5 6 6
8 7 7 8 8 9 9 7 6 7 7 7 7 6 6 6 5 3 2 3 3 6 6 6 5 6 7 8 7 4 3 3 1 3 5 6 7 7 7 7 6 5 5 5 6 6 6 6 6 6 7 7 7 7 7 7 7 7 7 7 6 6 6
7 7 8 8 7 6 7 9 9 8 8 8 8 8 7 7 6 4 4 6 5 3 2 2 5 5 4 2 6 9 10 8 4 1 2 4 5 3 4 6 7 7 7 6 6 7 7 7 7 7 7 8 7 8 8 8 7 7 7 7 7 7 7
10 10 9 7 8 8 9 8 8 8 8 8 7 6 6 6 6 6 6 5 4 6 6 5 2 3 5 5 2 2 3 6 7 7 5 2 3 4 4 4 4 5 6 6 7 8 8 8 8 8 7 8 8 8 8 8 8 7 7 7 7 7 7
10 9 7 8 8 8 9 9 8 8 8 7 7 8 8 7 7 7 7 6 5 6 6 4 2 1 2 4 4 5 5 5 4 2 2 3 4 4 5 4 3 2 3 4 6 7 8 8 8 7 7 7 8 8 7 8 8 7 8 7 7 6 7
11 10 9 8 8 8 9 8 8 8 8 7 8 8 7 8 8 8 7 7 7 7 6 5 5 2 2 0 1 2 3 3 3 4 4 4 5 5 4 3 2 3 3 3 3 4 5 6 7 7 8 7 7 7 6 7 7 9 13 11 8 7 7
10 10 10 9 9 8 9 10 10 10 10 10 9 9 10 8 8 7 7 6 7 8 8 9 8 7 5 5 4 3 2 2 1 1 2 3 3 3 3 2 2 3 5 4 3 3 3 4 6 7 7 8 8 8 7 7 7 12 13 14 14 10 8
9 9 8 9 8 8 9 9 10 10 10 10 8 9 9 8 8 8 7 6 7 6 6 7 8 6 6 7 6 6 7 6 4 1 1 2 3 2 2 1 1 3 4 4 4 3 2 2 4 5 6 6 7 8 8 8 11 14 13 14 15 13 10
9 8 8 8 8 8 7 8 9 9 9 8 8 8 7 6 7 7 5 6 5 4 5 7 7 8 8 7 7 7 7 7 7 6 6 5 2 1 1 1 0 0 2 3 3 3 3 3 3 3 4 5 6 7 8 7 11 14 14 14 15 16 14
8 7 7 8 7 7 5 6 7 8 9 8 8 9 8 6 7 6 5 6 5 6 6 8 8 9 8 8 8 7 7 7 7 7 7 6 6 6 5 4 3 2 1 3 4 4 4 3 3 3 3 3 3 4 4 5 8 12 13 14 15 16 13
8 8 8 8 7 7 7 7 8 8 9 8 7 7 7 6 5 5 5 5 7 7 7 8 9 9 9 8 8 7 8 7 6 7 6 6 6 6 7 6 5 4 3 2 2 4 5 5 3 3 3 3 3 3 2 3 4 8 13 15 16 17 13
7 8 9 7 8 6 7 7 7 7 6 5 8 7 7 6 5 7 7 7 8 8 9 9 9 9 7 7 5 6 6 6 5 5 5 6 5 5 5 5 5 5 4 3 3 3 4 6 5 4 3 2 2 2 3 2 1 4 9 12 14 15 9
9 9 10 8 9 8 6 6 7 6 7 8 9 8 7 6 7 8 9 9 9 9 10 10 10 9 8 6 5 4 3 4 5 6 6 6 5 4 4 3 3 4 2 4 3 4 5 6 7 6 5 3 2 1 2 4 5 6 7 8 10 6 6
9 10 10 9 8 8 8 7 7 8 9 9 9 8 6 6 7 8 9 8 8 9 9 9 8 7 7 7 6 6 5 5 5 6 6 5 6 5 4 3 3 3 3 4 4 4 3 3 6 7 6 3 3 2 3 4 5 6 6 5 5 5 5
8 8 8 9 10 10 8 8 8 7 8 9 9 7 7 7 8 9 8 7 7 8 8 8 7 7 6 7 6 5 6 6 6 6 5 4 4 4 4 5 5 5 4 4 4 4 4 3 4 6 6 4 2 4 3 3 5 7 9 9 5 2 3
9 9 8 8 7 7 7 6 9 9 9 8 5 5 6 6 8 8 7 7 7 9 8 7 5 5 4 5 6 5 6 5 5 4 5 6 6 6 6 5 5 6 5 5 4 3 4 3 3 5 5 5 4 3 4 4 4 5 9 9 8 4 3
7 8 9 9 8 8 9 8 9 8 6 4 5 5 5 6 8 8 7 7 9 9 7 6 5 5 5 5 6 6 6 6 5 5 5 4 4 4 4 4 5 4 5 5 5 5 5 4 4 4 4 5 6 7 6 7 7 7 10 11 9 5 3
8 7 6 7 9 8 8 8 8 7 7 5 6 5 5 6 8 7 8 8 9 7 5 6 6 5 5 5 5 5 6 6 6 5 5 5 5 6 5 5 4 4 4 4 5 4 3 3 4 4 5 4 4 5 6 8 10 7 8 8 7 5 3
10 10 9 8 8 7 9 8 7 7 6 6 7 7 6 7 7 6 6 8 7 6 6 6 6 6 5 5 5 5 5 5 6 5 4 4 5 4 5 5 5 4 5 5 5 5 4 4 4 5 6 6 6 5 6 6 6 9 8 10 11 10 6
7 8 7 7 8 8 8 8 7 8 7 7 7 7 6 7 6 6 7 7 5 6 7 7 7 5 6 6 6 5 6 6 6 6 4 4 4 3 4 5 4 4 4 4 5 5 5 5 5 5 6 6 6 7 7 6 6 6 8 7 11 11 10
9 9 9 9 8 7 7 9 9 8 7 6 6 5 6 6 7 7 8 5 4 6 6 6 6 5 6 6 6 6 5 6 5 6 5 5 4 3 3 3 2 4 3 3 4 5 4 5 4 5 5 5 6 6 6 6 7 6 6 7 10 10 10
7 7 8 8 7 7 8 9 9 9 7 5 4 4 4 5 6 7 4 5 6 6 6 6 6 6 6 6 6 6 5 5 6 4 5 6 4 4 2 1 1 1 1 3 3 4 5 5 5 5 5 5 6 6 6 5 5 6 4 5 7 7 11
8 9 9 9 8 8 8 9 8 7 7 5 2 4 4 5 5 4 4 5 6 6 6 6 6 6 6 7 6 5 5 5 5 4 5 4 5 4 3 3 1 1 2 3 3 3 3 4 4 5 5 6 6 6 6 5 5 5 4 6 7 6 6
8 6 6 8 7 8 8 9 8 7 6 5 3 4 4 5 4 4 4 4 4 5 5 5 6 5 6 7 6 5 5 4 8 7 5 4 3 4 6 4 2 1 2 2 3 3 4 2 3 4 4 6 6 6 7 7 6 5 7 8 7 5 6
8 9 8 7 6 8 10 8 8 7 6 5 4 5 5 5 4 4 4 3 3 3 4 5 6 6 6 6 6 7 7 6 5 4 5 4 5 5 3 4 6 3 3 1 2 1 0 2 2 2 1 2 4 5 6 6 7 6 7 6 5 4 5
7 8 6 5 7 8 8 8 9 7 6 4 4 5 5 5 4 4 4 4 3 4 4 5 4 4 6 6 6 6 7 7 7 6 6 5 5 5 7 7 1 1 3 3 4 4 2 1 2 2 2 3 3 2 3 5 7 9 9 9 8 6 6
9 6 6 7 9 7 8 7 7 7 6 5 5 5 5 4 3 3 3 3 3 4 4 4 4 4 5 5 6 7 7 6 6 6 5 5 5 5 4 5 6 1 2 3 5 1 2 5 6 5 4 1 4 4 5 8 7 6 7 8 8 9 10
9 8 7 7 9 9 8 7 6 7 7 5 5 5 5 4 3 3 2 3 3 3 3 4 3 5 5 5 5 5 7 6 6 6 6 6 5 4 4 4 4 6 10 9 4 7 7 5 5 6 8 5 2 3 3 3 3 7 6 6 7 8 9
Wind_Direction
105 104 89 95 106 158 164 179 186 179 175 175 176 175 173 174 174 173 177 180 185 185 188 182 186 181 185 188 187 180 170 165 176 184 181 191 188 180 182 186 183 194 187 188 197 193 195 183 183 187 181 188 191 195 196 196 207 214 213 215 214 203 218
123 120 147 125 112 123 134 150 166 193 188 178 177 175 175 176 172 176 180 183 186 186 185 187 185 188 188 189 183 184 174 167 172 181 179 186 191 189 189 182 185 191 191 196 188 197 180 195 185 187 190 193 198 192 189 195 203 210 206 206 202 222 214
145 143 145 157 124 98 118 118 134 174 190 189 178 175 178 178 178 180 178 182 188 189 186 187 189 188 187 186 184 196 191 173 169 178 182 188 196 195 193 185 190 187 193 188 187 191 191 191 194 192 192 198 205 199 198 195 205 205 206 198 203 214 222
155 157 160 167 105 75 86 106 104 99 181 190 188 182 181 182 182 183 181 181 184 186 188 192 188 186 185 186 191 196 199 198 187 182 189 188 196 196 185 192 192 186 177 194 195 192 192 184 192 198 200 197 207 206 199 202 201 200 199 183 197 210 216
124 143 135 93 91 102 92 95 93 92 138 192 202 194 185 183 181 182 188 187 184 187 190 188 188 185 184 184 191 194 201 198 201 199 194 194 197 191 194 194 192 195 203 191 191 191 193 184 193 200 210 202 210 204 206 200 198 193 187 179 189 191 207
135 141 133 122 136 162 88 89 102 112 124 152 184 192 191 183 179 184 188 185 192 194 192 186 185 181 185 189 187 189 187 203 201 204 198 201 194 197 203 204 192 198 199 205 192 200 194 194 196 200 207 211 210 208 207 199 199 189 188 180 193 195 200
93 104 120 124 147 155 116 100 94 99 94 94 80 164 181 180 183 182 174 183 182 178 180 187 191 186 190 179 187 181 190 197 197 207 208 209 212 206 207 208 203 199 205 188 201 196 201 203 207 204 205 210 214 215 210 207 204 200 192 190 205 212 212
128 128 136 129 133 123 118 116 111 92 83 78 95 124 171 175 166 166 179 180 177 176 186 185 185 186 184 186 187 192 193 196 190 191 195 209 217 221 216 212 211 208 199 201 207 189 201 206 208 207 204 206 213 217 218 214 210 205 195 204 212 223 206
77 75 68 93 106 115 116 108 76 66 58 51 60 67 100 148 167 176 177 168 166 171 179 184 196 194 179 181 186 194 194 190 193 191 198 206 209 218 218 216 219 211 206 213 211 200 201 204 206 203 200 205 206 209 215 215 217 212 202 211 213 217 220
73 81 77 66 62 62 81 92 78 75 66 62 58 57 55 61 127 145 136 136 140 147 139 128 109 100 149 177 191 194 189 193 197 198 205 212 214 214 214 211 211 209 214 217 216 209 208 203 204 201 199 203 204 203 209 210 218 219 217 216 213 216 219
58 69 69 73 71 65 64 55 57 67 75 77 80 80 68 62 64 80 115 146 145 136 141 134 124 116 99 78 67 60 149 220 229 215 213 218 221 226 222 215 211 207 213 214 220 216 202 209 202 202 201 205 204 204 206 210 208 214 222 226 222 221 222
66 64 57 72 83 81 77 82 69 63 67 69 61 57 61 58 43 31 49 64 82 126 133 126 116 125 126 128 120 101 43 4 353 245 229 226 225 228 228 225 219 214 215 213 222 221 212 202 202 200 205 209 208 204 207 207 207 210 217 220 222 225 231
80 70 64 62 70 77 87 77 74 73 67 69 73 69 68 85 90 83 63 64 46 34 41 103 123 107 94 105 154 160 165 189 210 212 226 210 214 230 240 232 225 215 211 206 215 219 221 214 207 207 203 209 208 209 206 205 207 210 214 219 220 221 226
80 77 70 71 64 59 65 64 63 70 75 72 73 80 82 88 80 73 79 90 72 50 43 2 19 115 130 139 160 305 260 207 199 184 184 224 228 208 219 230 228 225 217 197 206 216 219 219 214 212 206 208 209 213 208 205 208 210 212 214 217 219 225
86 78 63 58 54 55 57 61 63 56 56 70 84 78 69 62 59 58 64 58 87 121 137 132 72 304 175 156 164 158 179 200 230 273 244 208 220 231 222 225 240 233 202 201 209 211 215 218 218 215 213 214 213 215 212 211 215 212 210 212 217 219 228
92 86 76 61 60 65 73 61 55 60 71 63 70 77 67 58 55 57 57 61 66 70 59 65 62 21 341 19 148 162 180 189 194 204 211 216 219 225 231 236 273 280 250 203 199 222 222 219 216 215 213 215 219 219 217 221 222 222 214 209 209 212 221
97 97 94 88 80 68 70 67 62 61 62 59 56 59 59 54 52 53 53 55 59 67 69 66 55 41 27 37 31 49 82 130 193 217 249 260 255 251 244 256 270 284 288 265 229 217 214 210 220 219 217 214 214 215 217 223 228 227 219 218 218 214 214
84 81 80 90 92 92 89 85 84 77 75 72 59 57 60 58 56 50 40 36 49 47 57 73 75 57 39 39 30 36 33 25 35 58 289 273 282 289 294 306 270 259 256 268 263 265 273 225 215 221 223 221 219 219 217 220 225 223 221 218 220 220 220
98 87 82 79 78 77 74 79 81 81 86 93 95 88 76 68 64 66 56 48 37 51 64 69 64 55 46 33 28 28 28 27 22 21 25 13 351 306 191 164 122 299 306 291 310 336 337 306 296 266 242 225 223 226 224 226 224 222 221 221 220 220 220
105 102 91 81 84 80 76 70 68 70 70 73 79 84 90 86 84 71 72 70 63 62 59 62 60 61 47 33 22 17 21 31 26 18 15 15 16 15 27 48 65 52 2 327 322 325 328 321 307 290 278 259 244 246 254 242 238 223 223 225 225 225 215
108 100 92 90 83 80 81 79 72 67 56 50 48 54 57 55 60 72 58 50 54 48 56 56 61 55 53 46 25 16 15 22 31 22 3 1 9 8 10 11 11 25 27 13 332 317 315 306 304 293 279 283 278 274 267 255 279 251 234 229 227 229 217
118 105 100 102 96 82 74 69 72 69 68 53 53 51 50 49 42 53 47 39 40 35 32 35 42 49 51 52 41 37 12 4 22 30 25 11 5 11 9 359 347 340 350 7 5 352 333 318 300 284 281 277 292 308 306 295 317 255 240 238 240 236 226
114 111 114 106 101 96 89 81 70 62 61 53 47 43 36 39 52 55 50 42 37 38 34 32 30 20 16 24 29 41 35 18 20 24 28 22 7 5 24 355 332 325 334 352 1 2 355 332 316 303 295 299 305 301 285 286 266 261 262 253 250 246 243
107 111 108 107 98 92 85 76 69 55 59 55 44 33 29 39 53 58 52 44 38 40 36 33 25 14 11 3 355 358 13 22 27 28 32 28 357 329 323 326 334 341 349 347 343 353 0 320 294 293 295 303 308 284 282 284 281 261 268 269 263 211 231
114 111 109 110 108 100 88 79 76 67 56 52 45 23 32 39 48 53 49 44 42 42 37 26 15 8 2 354 348 353 355 11 21 17 14 13 344 324 333 339 337 332 349 355 351 344 344 340 317 302 300 297 291 297 297 286 294 283 278 282 281 220 237
121 111 103 97 88 96 97 93 78 65 58 54 42 33 43 46 50 48 44 35 35 35 25 12 357 344 349 2 7 10 3 357 6 14 10 360 352 344 340 339 345 356 359 3 2 0 10 13 337 320 327 336 337 354 357 342 325 324 309 301 303 259 268
114 118 117 109 105 97 86 78 82 82 76 67 55 52 48 51 51 42 36 35 33 21 1 344 344 351 354 1 13 13 11 5 0 352 354 352 342 333 342 342 347 1 31 41 29 29 16 11 351 337 340 356 4 20 16 14 13 6 358 342 320 298 229
114 103 100 107 108 99 93 87 81 74 60 45 48 47 52 61 58 43 31 30 23 0 344 352 357 356 354 359 9 6 9 2 353 359 344 340 346 353 352 343 353 8 26 32 37 33 24 351 345 345 349 352 20 15 4 5 11 7 4 347 340 335 274
126 124 120 108 96 95 98 89 78 69 58 44 45 45 50 65 65 54 40 28 359 340 350 358 0 358 0 2 6 0 356 353 350 354 351 342 343 350 360 1 11 10 15 20 18 18 10 1 356 357 356 357 3 13 4 358 0 5 359 351 5 31 17
123 120 113 108 110 110 100 94 82 72 60 54 50 47 46 58 56 46 42 19 337 347 357 359 356 353 3 3 357 354 354 350 343 346 354 345 345 350 26 15 14 18 16 12 12 2 359 350 353 358 4 5 356 355 354 353 352 353 356 28 56 54 44
134 130 125 122 121 113 107 107 99 88 72 59 59 50 48 49 56 43 31 355 355 5 2 353 353 358 0 355 348 348 346 342 342 338 351 352 349 337 35 17 25 32 5 22 11 6 356 338 345 357 352 355 359 351 351 351 345 347 351 38 39 28 11
122 123 122 120 121 119 117 107 103 100 94 72 70 69 61 54 57 52 10 357 8 4 358 358 359 360 355 348 344 339 338 340 335 338 359 355 2 326 326 19 27 40 26 36 20 8 358 343 349 354 353 351 349 350 342 343 340 340 343 19 15 4 350
145 143 139 134 140 127 112 110 108 107 102 94 71 83 75 71 59 57 31 29 10 4 355 358 1 357 353 345 338 333 338 339 321 341 351 350 348 348 330 312 306 67 24 20 16 14 5 355 359 358 355 354 341 337 337 339 340 338 349 12 359 350 344
144 137 143 138 129 113 109 111 115 112 106 99 94 87 85 71 61 47 43 31 20 6 1 1 355 351 340 335 332 331 330 330 334 342 335 332 343 342 338 323 274 23 34 347 359 22 356 8 360 359 357 344 337 333 336 335 332 351 7 358 351 342 337
145 142 140 129 127 119 123 123 115 116 109 108 104 98 79 70 56 48 46 30 21 14 17 360 349 345 340 338 341 338 335 331 324 321 320 317 327 320 284 261 269 276 301 277 161 147 150 7 334 2 353 316 330 331 329 331 335 356 15 14 22 355 336
142 140 136 118 110 118 118 120 124 120 112 108 113 102 90 76 57 40 34 24 19 16 19 3 346 347 343 337 338 331 334 332 328 326 326 325 321 325 324 318 23 112 351 314 27 82 231 269 335 319 305 326 298 254 290 306 313 354 6 0 2 347 311
144 146 133 125 116 116 121 128 125 116 107 112 111 101 99 89 71 53 25 23 12 15 7 359 355 349 338 339 332 336 345 336 330 325 329 327 328 323 317 311 334 25 157 199 299 286 204 238 264 281 261 293 327 311 282 287 326 359 344 359 355 340 339
158 148 139 137 133 136 130 132 125 122 123 123 112 110 106 94 78 64 33 19 10 7 7 358 359 345 335 322 307 345 356 349 339 339 341 334 332 336 338 345 356 336 333 341 5 338 330 319 307 313 315 52 94 299 337 83 20 336 355 356 354 347 348